Regional Weather Roundup
Issued by NWS

Home | Current Version | Previous Version | Graphics & Text | Print | Product List | Glossary On
Versions: 1 2 3 4 5 6 7 8 9 10 11 12 13 14 15 16 17 18 19 20 21 22 23 24 25 26 27 28 29 30 31 32 33 34 35 36 37 38 39 40 41 42 43 44 45 46 47 48 49 50
000
ASUS43 KFSD 231610
RWRSD

WEATHER ROUNDUP FOR SOUTH DAKOTA
NATIONAL WEATHER SERVICE SIOUX FALLS SD
1100 AM CDT MON OCT 23 2017

NOTE: "FAIR" INDICATES FEW OR NO CLOUDS BELOW 12,000 FEET WITH NO
SIGNIFICANT WEATHER AND/OR OBSTRUCTIONS TO VISIBILITY.


SDZ001>005-009-010-012>017-231700-
NORTHWEST AND NORTH CENTRAL SOUTH DAKOTA

CITY           SKY/WX    TMP DP  RH WIND       PRES   REMARKS
BUFFALO          N/A     49  27  42 NW36G43   30.18R
MOBRIDGE       MOSUNNY   51  34  52 NW26G36     N/A
$$

SDZ012>016-024>037-041>051-057-063-072>074-231700-
SOUTHWEST AND SOUTH CENTRAL SOUTH DAKOTA

CITY           SKY/WX    TMP DP  RH WIND       PRES   REMARKS
RAPID CTY ARPT SUNNY     53  22  29 NW30G44   30.28R
PIERRE         SUNNY     53  34  48 NW32G45   30.11R
CUSTER         MOSUNNY   42  19  39 NW16G24   30.31R
ELLSWORTH AFB  SUNNY     53  22  30 NW33G41   30.26R
PHILIP         SUNNY     55  28  35 NW33G45   30.20R
PINE RIDGE     SUNNY     53  26  35 NW14G20   30.31R
SPEARFISH      FAIR      48  23  37 NW24G33   30.31R
WINNER         FAIR      54  34  46 NW22G32   30.16R
$$

SDZ004>011-016>023-039-040-231700-
NORTHEAST SOUTH DAKOTA

CITY           SKY/WX    TMP DP  RH WIND       PRES   REMARKS
ABERDEEN       CLOUDY    49  37  63 NW30G38   30.02R
WATERTOWN      PTSUNNY   50  36  58 NW32G41   29.92R
BROOKINGS      MOSUNNY   52  38  58 NW23G33   29.94R
SISSETON         N/A     48  39  71 NW28G40   29.91R
$$

SDZ017-020-022-023-036>040-048>070-231700-
SOUTHEAST SOUTH DAKOTA

CITY           SKY/WX    TMP DP  RH WIND       PRES   REMARKS
SIOUX FALLS    MOSUNNY   56  39  53 NW25G36   29.96S
HURON          CLOUDY    52  37  56 NW32G39   30.02R
CHAMBERLAIN    SUNNY     56  36  46 NW33G40   30.11R
MITCHELL       MOSUNNY   57  36  45 NW26G37   30.04S
YANKTON        SUNNY     57  38  48 NW28G37   30.03R
$$

ABBREVIATIONS USED IN REMARKS
   TC - TEMPERATURE IN CELSIUS
  WCI - WIND CHILL INDEX
   HX - HEAT INDEX
  VSB - VISIBILITY




USA.gov is the U.S. government's official web portal to all federal, state and local government web resources and services.